Regional Weather Roundup
Issued by NWS Upton, NY

Current Version | Previous Version | Text Only | Print | Product List | Glossary Off
Versions: 1 2 3 4 5 6 7 8 9 10 11 12 13 14 15 16 17 18 19 20 21 22 23 24 25 26 27 28 29 30 31 32 33 34 35 36 37 38 39 40 41 42 43 44 45 46 47 48 49 50
573 ASUS41 KOKX 241709 RWROKX REGIONAL WEATHER ROUNDUP NATIONAL WEATHER SERVICE NEW YORK NY 100 PM EDT SAT JUN 24 2017 NOTE: "FAIR" INDICATES FEW OR NO CLOUDS BELOW 12,000 FEET WITH NO SIGNIFICANT WEATHER AND/OR OBSTRUCTIONS TO VISIBILITY. NYZ071-072-176-178-NJZ106-104-241800- NEW YORK CITY METRO AREA CITY SKY/WX TMP DP RH WIND PRES REMARKS Central Park SUNNY 82 56 40 W15G25 29.75R Bronx Bot Gard NOT AVBL LaGuardia APRT MOSUNNY 83 56 39 NW18G31 29.70R Kennedy INTL MOSUNNY 85 56 37 NW22G30 29.71R Breezy Point N/A 81 N/A N/A W10G18 N/A Newark/Liberty MOSUNNY 86 56 35 W24G31 29.72R Teterboro SUNNY 84 56 38 NW20G30 29.71R $$ NYZ177-179-078>081-241800- LONG ISLAND NEW YORK CITY SKY/WX TMP DP RH WIND PRES REMARKS Jones Beach N/A 81 N/A N/A NW20G25 N/A Matinecock PT NOT AVBL Farmingdale NOT AVBL MacArthur/ISP PTSUNNY 84 66 54 W14G25 29.68R Shirley PTSUNNY 83 72 69 NW14G23 29.68R Mt Sinai Harb N/A 81 N/A N/A W6G12 N/A Westhampton MOSUNNY 84 69 60 W18 29.68R East Hampton FAIR 80 71 75 W9G20 29.65R Montauk N/A 76 70 82 W9G18 29.65R $$ NYZ052-065-067-241800- HUDSON VALLEY CITY SKY/WX TMP DP RH WIND PRES REMARKS White Plains NOT AVBL Larchmont Harb N/A 81 N/A N/A W17G24 N/A Croton O-T Hud N/A 82 N/A N/A NW15 N/A Newburgh MOSUNNY 82 57 42 NW23G31 29.73R Montgomery SUNNY 83 55 38 NW16G23 29.72R Poughkeepsie MOSUNNY 83 55 38 W17G25 29.69R Albany MOSUNNY 79 59 50 NW22G30 29.69R $$ NJZ001-105-106-008-010-013-015-019>022-104-241800- NEW JERSEY CITY SKY/WX TMP DP RH WIND PRES REMARKS Newark/Liberty MOSUNNY 86 56 35 W24G31 29.72R Teterboro SUNNY 84 56 38 NW20G30 29.71R Caldwell SUNNY 85 54 34 NW18G29 29.74R Somerville SUNNY 84 56 38 NW10G23 29.75R Linden FAIR 84 54 35 NW25G32 29.74R Perth Amboy N/A 81 N/A N/A NW21G29 N/A Sussex SUNNY 81 56 42 NW10G17 29.76R Andover N/A 81 57 43 VRB6 29.77R Trenton SUNNY 83 57 41 NW10G21 29.77R Millville SUNNY 84 67 56 W16G25 29.80R Atlantic City MOSUNNY 86 68 54 W16G28 29.78R Wrightstown SUNNY 84 57 39 NW14G23 29.75R Toms River MOSUNNY 83 70 64 NW13 29.77R Belmar PTSUNNY 84 63 49 W14 29.76R $$ PAZ047>061-062-071-241800- EASTERN PENNSYLVANIA CITY SKY/WX TMP DP RH WIND PRES REMARKS Philadelphia MOSUNNY 85 58 39 NW17G30 29.80R Allentown MOSUNNY 82 59 45 W14 29.79R Scranton MOSUNNY 80 54 40 NW10G21 29.81R $$ CTZ002-004>006-009-010-012-RIZ004-006-007-MAZ004-011-015-241800- SOUTHERN NEW ENGLAND IN CT CITY SKY/WX TMP DP RH WIND PRES REMARKS Bradley INTL MOSUNNY 84 59 42 W20G28 29.65R Hartford SUNNY 84 59 42 NW15G24 29.64R Danbury SUNNY 82 60 47 NW12G18 29.71R Wtrbury/Oxford MOSUNNY 79 61 53 NW9G18 29.71R Bridgeport MOSUNNY 86 64 47 NW15 29.66R Meriden SUNNY 83 60 45 NW14 29.66R New Haven MOSUNNY 81 63 54 MISG 29.67R Chester FAIR 81 61 50 NW10G20 29.66R Groton PTSUNNY 77 70 79 SW13 29.62R Wilimantic SUNNY 84 64 50 NW9G21 29.64R IN RI CITY SKY/WX TMP DP RH WIND PRES REMARKS Providence LGT RAIN 76 68 76 NW8 29.60R Block Island PTSUNNY 72 70 94 W13G20 29.63R Westerly MOSUNNY 78 71 79 SW14G20 29.63R IN MA CITY SKY/WX TMP DP RH WIND PRES REMARKS Boston CLOUDY 76 71 85 SW10 29.56F Worcester SUNNY 76 63 64 W14G28 29.64R Westfield MOSUNNY 82 59 45 NW16G30 29.65R Provincetown CLOUDY 69 68 96 SW9 29.59S Nantucket CLOUDY 66 65 96 SW18 29.61F FOG $$ ANZ330-335-338-340-345-350-353-355-241800- COASTAL MARINE OBSERVATIONS STATION/POSITION TIME SKY/WX TEMP WIND PRES VSBY WAVE AIR SEA DIR/SP/G HT/PER (UTC) (F) (DEG/KT/KT) (MB) (MI) (FT/S) NY HARB ENTRANCE 1550 71 67 260/ 8/ 10 1005.3 5/ 7 20 S FIRE ISLAND 1650 70 67 260/ 14/ 16 1005.4 8/ 9 GREAT SOUTH BAY 1630 76 76 280/ 10/ 16 N/A 23 SSW MONTAUK P 1550 66 64 1003.5 9/ 8 15 E BARNEGAT LI 1630 62 N/A 6/ 8 HUDSON CANYON 1550 70 67 280/ 16/ 17 1005.4 9/ 8 KINGS POINT 1642 79 64 350/ 20/ 24 1005.7 EXECUTION ROCKS 1645 79 290/ 17/ 25 N/A CENTRAL LI SOUND NOT AVBL EASTERN LI SOUND NOT AVBL ROBBINS REEF 1642 300/ 23/ 28 1006.7 $$ >>>>>>>>>>>>>>>>>>>>>>>>>>>> KEY <<<<<<<<<<<<<<<<<<<<<<<<<<< > < > SKY/WX - Sky Condition/Present Weather < > TMP - Temperature in Fahrenheit < > DP - Dew Point in Fahrenheit < > RH - Relative Humidity in Percent < > WIND - Direction (from) and Speed in MPH < > PRES - Mean Sea Level Pressure (inches of Hg) < > WCI - Wind Chill Index < > VSB - VISIBILITY IN MILES < > HX - HEAT INDEX < > TC - TEMPERATURE IN CELSIUS < > VRB - VARIABLE WIND DIRECTION < > < >>>>>>>>>>>>>>>>>>>>>>>>>>>> KEY <<<<<<<<<<<<<<<<<<<<<<<<<<<

USA.gov is the U.S. government's official web portal to all federal, state and local government web resources and services.